Theta_e
316 319 320 322 320 313 317 318 315 318 316 314 317 319 318 319 323 318 330 332 338 339 339 339 338 335 332 333 336 339 340 339 340 338 338 337 335 333 332 330 329 330 329 327 326 326 326 325 326
318 320 322 314 315 314 314 315 317 317 314 313 313 315 319 326 324 326 329 338 340 339 339 339 338 335 334 335 338 338 338 338 339 338 336 336 334 332 331 327 328 328 327 325 320 316 317 321 325
319 319 316 314 310 314 314 315 314 315 312 314 315 316 322 326 323 326 331 336 342 341 339 339 339 336 335 334 337 338 336 336 338 337 336 335 332 327 326 322 320 323 320 317 314 310 310 315 322
318 317 311 311 315 314 314 313 313 314 314 313 315 320 323 325 326 330 332 341 341 341 339 339 339 338 337 336 335 336 336 334 335 336 336 333 328 327 325 323 322 314 312 309 305 302 303 310 318
317 310 314 312 314 314 313 312 312 315 314 314 315 318 324 325 329 333 336 342 340 340 339 339 339 340 340 337 334 336 335 333 333 333 335 331 328 328 327 326 325 323 320 310 302 301 302 305 313
314 308 313 315 313 313 314 312 313 313 313 315 314 316 317 324 329 334 336 341 341 341 340 340 339 340 340 336 336 337 335 334 333 332 332 330 329 329 328 326 324 322 322 320 308 300 300 303 308
313 310 313 312 313 314 315 313 313 310 311 314 311 317 315 318 331 335 337 340 339 338 340 341 340 339 339 337 338 337 336 335 334 333 332 330 329 329 327 325 323 322 321 321 320 312 301 300 303
309 308 312 312 313 315 314 314 311 312 313 310 311 313 314 315 329 334 335 338 339 339 340 339 341 341 340 339 339 338 337 335 334 333 333 331 330 329 326 324 323 322 322 321 320 319 315 306 301
308 308 310 313 313 315 313 314 314 310 311 309 308 310 310 316 321 327 329 329 331 334 336 338 339 340 338 338 338 338 338 336 335 334 333 332 330 330 326 325 325 323 322 322 320 320 318 314 309
311 309 313 312 313 314 313 313 313 313 311 310 310 310 311 312 317 316 313 314 317 320 326 332 336 337 336 336 337 338 337 336 336 335 334 332 330 329 327 326 326 323 322 322 321 320 319 318 316
311 310 311 313 314 313 314 314 312 310 313 309 309 309 309 310 313 311 310 311 312 313 314 319 328 333 332 334 336 337 337 337 337 336 335 332 330 329 327 327 325 325 323 322 321 320 319 318 317
312 313 312 314 314 315 314 314 314 312 312 310 307 307 307 306 307 308 309 310 311 312 312 312 313 318 324 332 333 336 337 335 336 335 335 332 330 330 328 328 326 326 324 322 321 321 320 318 316
314 314 314 314 314 314 314 314 313 312 307 306 306 307 305 305 306 308 309 309 310 311 312 312 313 314 318 330 330 332 334 335 334 335 334 333 331 329 328 328 326 325 324 323 322 321 319 318 316
314 314 314 313 314 314 314 314 313 310 305 306 306 305 303 304 306 306 308 308 310 311 312 314 315 316 319 328 328 330 331 333 333 334 334 332 331 329 328 326 325 324 323 322 322 321 319 318 316
314 314 312 312 313 314 312 313 312 308 305 306 305 303 303 303 305 306 307 308 310 311 313 315 317 318 319 326 327 329 330 330 331 332 331 331 329 327 325 325 323 322 322 321 321 319 318 317 313
314 313 315 314 311 313 312 314 313 306 305 306 304 302 302 302 303 305 306 308 309 311 314 315 317 320 319 325 326 327 327 326 326 327 326 326 325 324 323 321 320 319 319 318 316 315 316 311 308
312 314 314 314 311 311 311 314 312 305 305 306 303 302 302 301 302 304 305 307 308 312 314 314 316 316 319 321 322 322 322 321 321 322 321 321 321 320 319 317 316 315 314 312 310 306 303 303 306
314 315 314 315 313 311 311 311 310 306 305 306 304 302 302 302 301 303 305 307 310 312 313 314 316 315 318 320 319 318 317 317 317 317 317 317 316 316 315 312 311 310 309 305 300 296 300 307 305
313 314 315 314 313 312 311 311 311 307 305 304 303 303 303 302 301 303 305 306 310 311 312 313 314 314 315 315 311 309 310 311 311 311 311 311 311 310 309 306 305 306 303 296 294 294 294 304 303
313 314 313 312 312 311 311 311 309 308 307 307 306 305 304 300 299 301 304 306 309 310 311 311 314 312 308 309 308 308 305 305 305 306 307 306 305 303 301 299 299 298 293 292 292 292 292 291 294
313 313 313 315 313 311 311 312 311 310 308 307 308 307 305 303 300 300 302 305 307 309 310 310 311 309 306 309 308 304 302 300 299 301 301 300 297 295 294 293 292 291 291 290 290 290 291 289 288
316 312 314 315 315 316 311 317 313 311 310 308 309 307 305 302 300 301 302 303 306 308 310 309 308 308 307 306 306 306 300 295 294 295 294 293 292 291 291 290 290 290 290 289 289 288 288 288 287
315 313 313 314 313 313 313 313 314 311 312 311 311 307 304 301 300 301 302 304 306 308 309 309 309 306 304 305 304 300 295 295 292 291 290 289 289 289 289 288 289 289 289 287 287 287 287 287 286
311 313 312 311 312 315 314 314 315 313 314 312 312 308 303 300 300 301 302 304 306 308 307 308 308 305 304 303 302 298 299 292 289 289 288 288 287 287 287 288 288 287 287 286 286 286 286 286 285
312 314 317 318 315 318 312 313 316 313 313 311 312 307 301 300 299 300 299 301 301 303 304 304 303 301 301 301 299 297 296 292 290 288 287 286 286 286 287 287 287 286 286 286 286 286 285 284 284
312 313 316 316 318 317 312 316 316 311 310 309 306 305 300 299 299 299 300 300 299 300 301 302 301 300 298 298 296 294 292 290 289 289 288 287 287 286 286 286 286 286 286 286 285 284 284 283 283
312 314 314 318 301 310 316 314 313 309 309 307 307 303 299 299 299 298 298 298 297 297 298 300 299 298 297 296 295 292 291 290 289 288 288 287 287 286 285 286 286 286 286 285 284 284 284 283 283
311 310 315 313 315 317 317 316 319 315 311 309 306 303 299 298 296 296 296 295 295 296 297 298 299 298 297 295 294 292 290 289 289 288 287 287 286 285 285 285 286 286 285 285 284 284 283 283 283
313 313 313 314 312 315 315 319 311 314 311 310 308 303 299 298 295 295 294 294 294 294 295 296 296 296 294 294 293 291 290 289 288 287 287 286 285 285 285 285 286 286 285 284 284 283 283 283 283
311 314 313 317 316 315 315 320 308 310 310 309 308 303 300 298 295 293 293 292 291 291 292 291 292 293 293 292 292 290 290 289 288 287 286 286 285 285 285 285 286 285 285 284 283 283 283 283 283
Wind_Speed
7 4 2 3 4 5 1 1 2 2 4 3 4 10 9 4 2 3 2 4 14 19 18 16 16 15 15 15 15 15 14 14 15 15 16 18 18 17 17 17 16 16 16 16 15 14 14 14 15
7 3 2 3 5 4 3 1 4 3 6 8 8 4 8 3 2 3 3 8 17 20 20 18 16 15 14 14 14 13 12 12 14 14 14 15 15 15 16 16 16 15 16 15 15 13 12 13 14
4 3 4 4 4 5 5 4 6 5 9 4 4 6 3 1 2 1 5 13 17 17 17 17 16 14 13 12 12 12 12 12 13 13 13 13 14 14 16 17 18 17 16 15 14 13 12 12 13
2 5 4 5 4 1 7 6 6 5 4 6 5 7 3 5 0 3 8 16 15 11 17 16 16 15 15 12 10 10 10 11 12 12 13 11 12 13 15 17 18 18 17 16 15 14 14 13 13
4 3 4 4 1 2 3 5 7 5 3 4 1 4 3 3 7 10 15 20 13 15 17 15 15 14 13 12 12 12 11 11 12 12 14 12 13 13 15 16 16 16 17 17 16 16 16 15 13
4 3 5 3 2 2 2 7 7 3 3 4 6 5 3 2 10 12 15 19 14 15 16 16 16 16 13 12 12 12 11 10 10 13 14 13 13 13 14 15 15 16 17 17 17 17 17 16 15
6 4 5 4 5 2 4 4 6 6 6 3 9 5 2 2 12 16 17 17 19 17 17 15 16 16 14 12 12 13 13 10 11 14 14 13 13 13 13 16 18 18 18 19 18 17 16 15 14
5 4 3 2 5 4 3 2 5 5 3 4 1 7 5 6 16 17 16 17 18 17 15 16 16 15 14 12 12 13 14 12 11 14 14 13 12 11 13 16 17 15 15 17 17 17 16 15 14
3 5 1 1 5 4 3 3 1 3 7 4 4 3 5 19 18 17 15 14 14 14 14 15 17 16 15 14 14 14 14 13 13 13 14 14 12 13 14 13 12 12 11 11 14 15 15 14 14
5 4 5 1 3 4 4 4 7 4 4 3 3 3 9 14 17 17 14 12 12 11 12 13 17 16 16 15 14 15 15 14 16 16 17 17 15 16 15 12 10 11 11 11 11 13 13 14 14
2 4 4 2 2 4 5 2 4 8 3 7 9 9 7 14 17 17 14 12 11 11 11 13 15 17 16 18 14 13 17 16 16 16 17 18 18 17 15 11 9 8 9 10 10 10 10 11 12
3 1 3 4 2 1 4 2 3 5 5 3 9 10 7 10 14 17 16 14 13 12 10 10 12 14 15 17 17 15 16 16 19 19 20 21 20 17 15 11 9 8 9 8 8 7 8 8 10
2 1 1 3 4 4 1 4 4 5 4 6 13 9 9 10 13 13 14 12 13 12 11 10 12 13 16 18 19 21 18 18 19 21 23 21 22 20 17 14 11 8 6 6 7 7 6 6 8
3 0 4 4 4 3 5 4 3 3 7 7 9 9 8 11 15 12 14 14 13 12 10 9 10 15 20 21 20 21 20 19 20 22 24 25 23 21 16 14 12 12 9 6 6 5 4 6 7
2 3 5 6 5 4 4 6 10 5 9 9 9 8 8 12 16 18 17 15 13 11 10 10 10 16 20 22 22 23 22 21 22 25 25 24 22 17 16 15 13 10 7 5 7 5 4 3 8
1 3 2 3 7 3 6 9 5 9 13 12 10 9 9 9 16 17 15 15 13 12 12 11 11 15 20 23 23 24 22 23 21 21 21 20 19 18 18 15 13 11 10 8 8 7 6 7 10
5 3 5 8 7 4 5 8 3 6 9 9 9 10 9 8 13 18 16 15 13 13 13 13 14 18 23 25 26 27 25 24 22 21 20 19 19 19 19 18 17 15 14 14 12 12 12 14 15
6 5 5 5 5 3 4 12 5 7 9 12 10 10 11 12 13 21 18 16 15 15 15 16 18 22 26 28 29 28 27 25 24 21 21 22 21 21 21 21 19 17 16 16 16 19 18 20 24
4 4 5 4 4 6 9 11 14 10 7 9 10 12 13 15 13 22 20 17 17 17 19 20 23 26 30 33 33 30 30 27 26 24 23 23 23 22 21 21 21 20 19 19 17 19 22 22 26
5 5 9 6 5 7 8 12 10 6 10 14 18 16 17 8 10 18 22 21 22 23 22 23 25 29 28 28 28 32 33 28 28 26 24 22 22 22 23 24 24 21 22 19 16 15 21 23 10
8 8 5 8 3 3 5 9 8 9 10 8 18 18 16 19 17 13 21 25 24 25 26 27 28 28 26 28 30 33 29 30 29 27 26 24 24 25 24 24 24 23 22 22 20 18 17 17 20
8 7 6 6 1 5 4 9 6 6 11 9 18 16 16 14 14 15 21 26 30 28 27 27 28 29 29 31 34 38 37 32 25 31 29 28 26 26 25 24 24 23 23 21 20 18 18 15 12
7 3 5 2 3 1 3 5 5 5 8 12 19 14 14 16 20 19 24 28 32 31 31 32 31 29 29 31 35 34 32 33 36 33 32 30 27 25 24 24 23 22 21 21 19 18 18 18 17
7 5 5 4 2 5 10 9 6 7 13 7 14 9 14 15 16 16 22 27 31 33 32 33 33 31 30 31 34 35 39 42 40 36 35 31 29 26 24 23 22 22 22 20 19 18 16 15 14
5 7 2 3 1 8 4 7 18 5 7 11 15 10 12 14 16 15 15 24 27 34 34 34 34 33 32 32 35 36 40 44 43 41 38 35 31 28 25 23 23 22 20 19 16 14 14 13 12
9 9 6 7 5 5 1 8 6 10 9 9 8 7 9 11 14 16 20 26 28 32 34 34 34 34 34 35 35 38 41 43 41 40 38 35 32 29 26 24 22 20 18 16 13 13 13 11 11
6 9 6 1 2 2 6 8 9 8 9 9 14 5 9 12 13 14 18 24 27 30 34 36 36 36 37 36 38 41 41 41 41 38 35 34 31 30 26 23 22 19 16 14 12 12 11 9 8
6 7 2 1 2 6 5 7 11 5 10 13 8 8 9 8 9 11 16 23 26 32 35 37 38 38 39 39 41 43 42 40 39 38 37 35 33 30 27 24 21 18 15 13 11 11 10 8 6
3 5 3 5 5 5 3 8 7 10 10 8 10 9 9 12 13 14 15 21 25 30 36 38 39 40 41 41 43 45 42 40 39 39 37 35 33 30 27 24 21 18 16 14 12 11 9 7 5
2 6 7 5 6 6 2 17 4 7 6 8 8 8 9 12 12 12 16 22 24 28 32 34 36 40 42 43 45 44 42 41 40 38 37 35 33 30 27 24 21 19 16 14 13 12 10 7 4
Wind_Direction
341 330 303 58 61 67 15 51 167 86 50 351 27 100 115 78 71 176 109 183 176 161 156 155 152 143 135 130 120 116 116 112 108 101 99 95 86 79 73 71 70 66 65 64 64 65 68 72 77
348 355 68 83 87 72 288 300 128 131 131 139 91 66 51 49 72 129 135 150 156 160 163 159 155 147 139 134 127 127 125 120 120 107 104 99 91 83 78 72 71 70 69 63 63 63 68 77 81
355 2 81 92 109 151 167 209 169 148 169 144 93 55 86 4 344 114 108 156 157 163 169 162 153 147 143 140 138 131 123 127 126 120 112 107 95 82 77 71 71 71 69 65 62 64 69 77 84
346 21 34 83 112 238 157 194 194 137 114 82 120 68 40 359 143 139 139 150 152 162 169 164 157 154 150 147 144 134 130 133 134 129 129 114 99 90 82 75 70 68 67 67 65 66 70 79 82
49 59 59 84 19 116 150 185 164 141 99 65 138 138 88 27 101 122 138 152 158 162 161 165 166 163 156 151 154 149 142 144 142 141 143 126 112 99 88 80 74 71 68 66 68 69 72 79 84
42 91 65 143 199 227 224 174 137 111 121 161 76 95 177 124 121 120 143 152 155 169 165 164 170 170 168 163 164 157 154 141 143 148 144 134 121 109 94 82 76 76 73 71 70 71 73 78 84
106 81 166 136 169 175 207 146 124 145 134 106 141 108 222 171 128 125 137 148 155 158 165 172 179 179 174 173 173 167 163 155 152 155 149 143 128 110 97 86 78 71 69 71 70 69 71 75 77
102 90 99 140 181 215 234 62 120 134 112 119 74 167 189 188 146 135 137 138 148 159 168 173 170 179 183 183 178 177 174 169 163 162 162 152 138 129 114 97 85 62 65 68 69 70 70 71 72
102 63 95 116 158 213 172 129 357 66 95 57 353 146 167 147 154 147 142 138 142 151 157 169 186 183 194 197 192 185 182 179 175 173 171 165 159 146 137 126 113 104 82 71 72 75 74 75 76
79 98 185 215 176 198 182 166 157 117 112 38 43 59 133 153 165 152 153 150 158 158 166 174 183 186 194 194 195 194 192 194 187 186 180 175 168 156 155 158 148 131 119 104 87 81 77 75 73
144 157 191 194 199 159 171 140 187 126 233 195 190 179 149 152 165 157 159 164 170 178 185 191 195 197 202 200 192 189 190 191 184 184 185 177 169 165 164 158 137 117 109 116 109 95 85 78 73
92 219 167 186 153 104 164 174 168 186 205 182 176 158 146 149 157 165 165 168 174 186 196 203 204 203 195 192 201 193 189 195 190 186 186 178 176 173 162 159 147 137 125 124 120 107 92 83 74
129 244 193 169 166 174 138 216 214 218 174 120 133 149 161 167 167 178 179 180 188 197 202 207 206 198 186 183 195 198 186 172 178 180 181 186 181 170 164 160 154 152 150 138 133 117 111 83 76
174 53 281 232 219 206 190 232 156 199 162 155 154 170 176 177 178 171 180 184 194 200 201 201 200 188 181 184 190 187 184 165 162 169 175 176 169 165 166 169 173 167 166 147 133 114 89 59 64
102 308 313 234 204 222 145 284 235 171 166 180 188 183 185 191 189 193 195 197 197 200 195 193 188 179 183 182 186 177 163 166 163 158 163 164 163 164 175 165 157 151 149 123 111 102 90 71 69
38 54 331 287 146 242 130 263 267 169 165 198 198 199 201 207 202 203 202 201 199 200 189 188 178 169 175 180 174 168 161 161 156 158 162 164 165 169 163 151 144 137 133 130 122 110 99 79 82
1 239 216 311 194 143 175 260 270 162 181 201 204 207 206 208 209 204 200 201 202 195 188 185 178 174 171 166 161 154 151 152 147 153 153 157 156 155 154 146 137 136 130 116 99 88 89 89 93
207 219 242 233 211 171 216 261 259 199 199 215 212 214 211 210 207 196 194 197 196 191 187 184 178 172 167 161 157 152 149 145 144 148 150 152 151 149 143 134 131 133 120 104 95 83 93 89 105
174 195 243 250 219 183 227 240 255 211 231 236 228 222 218 218 195 195 194 193 188 186 184 182 181 175 169 162 154 149 142 141 139 139 140 140 143 143 138 130 129 127 116 104 94 88 88 101 107
242 248 260 293 241 186 255 251 245 207 223 220 226 224 219 191 183 187 190 189 190 187 187 182 184 177 167 164 164 154 147 143 140 141 143 143 140 136 132 127 121 119 112 102 94 86 85 72 81
233 220 231 232 340 257 319 270 234 243 230 225 234 231 219 206 183 181 183 191 190 190 188 184 180 172 174 172 164 151 145 139 137 141 140 140 137 133 128 123 120 116 107 96 87 83 81 91 71
231 211 201 239 141 255 144 284 233 246 242 225 241 226 219 187 184 180 181 188 192 192 187 181 175 182 185 179 169 163 154 146 148 144 138 137 136 131 127 125 120 109 100 97 94 90 88 91 93
232 177 202 233 202 348 213 281 263 215 249 247 247 226 206 193 183 181 184 184 189 184 180 177 179 184 182 181 174 167 155 152 147 142 139 136 134 131 129 124 114 109 105 102 97 93 87 83 84
147 85 48 51 48 260 218 208 200 202 224 245 250 222 197 188 186 179 178 175 181 181 181 184 184 185 184 183 180 175 164 154 148 147 143 141 138 134 130 124 118 114 110 103 97 91 85 83 88
132 120 288 317 323 247 293 225 252 285 243 223 250 232 198 182 176 168 167 173 175 179 182 181 183 182 186 186 184 178 167 161 157 155 150 146 143 140 136 132 125 119 111 103 95 91 92 94 93
195 164 164 216 213 270 358 242 253 230 275 256 266 266 171 177 181 178 177 175 175 178 180 181 185 184 186 184 182 177 169 164 161 159 156 153 150 146 143 138 130 120 113 107 106 106 104 100 90
198 212 170 350 92 360 226 279 275 253 274 264 254 148 175 185 185 179 173 177 177 179 181 183 183 183 182 182 180 177 173 169 166 163 160 156 153 151 149 143 134 129 124 121 121 118 114 108 100
159 164 96 15 222 255 269 270 235 230 239 252 264 211 198 174 167 174 178 180 180 183 185 189 191 187 185 185 184 181 177 174 169 166 164 161 158 155 153 148 144 138 134 134 136 132 127 126 116
147 190 179 141 160 195 295 261 215 213 218 237 254 221 186 185 183 181 180 182 182 187 188 191 192 188 186 187 185 182 180 178 173 171 167 165 162 161 160 156 153 149 149 152 155 150 147 147 137
328 208 162 162 215 234 159 263 176 172 195 204 256 211 191 187 181 179 177 174 178 183 187 187 189 190 188 187 185 183 181 180 177 174 171 170 168 167 165 163 161 159 161 165 169 168 170 174 173